Total_Precipitation_Accumulation
2.21 2.13 2.15 2.11 2.03 1.88 1.78 1.73 1.67 1.57 1.51 1.46 1.46 1.45 1.40 1.37 1.35 1.38 1.34 1.36 1.45 1.49 1.46 1.46 1.48 1.53 1.60 1.55 1.62 1.74 1.91 2.15 2.30 2.08 1.94 1.85 1.81 1.84 1.84 1.73 1.63 1.53 1.39
1.83 1.91 1.98 1.89 1.81 1.73 1.69 1.67 1.63 1.48 1.42 1.39 1.40 1.33 1.18 1.12 1.20 1.28 1.27 1.24 1.36 1.38 1.33 1.38 1.40 1.44 1.51 1.53 1.63 1.73 1.83 2.01 2.15 2.21 2.05 1.91 1.84 1.81 1.83 1.77 1.50 1.36 1.31
1.56 1.58 1.66 1.67 1.62 1.59 1.44 1.41 1.41 1.37 1.34 1.27 1.22 1.21 1.14 1.03 1.05 1.08 1.11 1.11 1.17 1.24 1.24 1.30 1.35 1.42 1.42 1.47 1.56 1.63 1.75 1.84 2.03 2.13 2.02 1.90 1.84 1.76 1.89 1.76 1.63 1.70 1.40
1.44 1.56 1.56 1.56 1.60 1.61 1.54 1.46 1.39 1.32 1.26 1.21 1.13 1.07 1.06 1.01 0.90 0.86 0.90 1.00 1.10 1.11 1.10 1.21 1.28 1.33 1.34 1.42 1.46 1.55 1.63 1.82 2.00 2.05 1.93 1.82 1.77 1.79 1.91 1.92 1.83 1.75 1.60
1.29 1.41 1.50 1.45 1.41 1.45 1.51 1.40 1.24 1.17 1.08 1.06 1.00 0.95 0.96 0.89 0.77 0.80 0.83 0.85 0.97 1.02 1.02 1.08 1.14 1.18 1.19 1.24 1.23 1.36 1.54 1.74 1.85 1.94 1.89 1.84 1.78 1.90 1.91 1.85 1.80 1.78 1.63
1.18 1.33 1.41 1.38 1.33 1.32 1.36 1.33 1.26 1.18 1.13 1.10 1.05 0.99 0.93 0.79 0.77 0.73 0.74 0.80 0.89 0.99 1.09 1.09 1.02 1.01 0.99 0.94 0.98 1.09 1.28 1.53 1.77 1.89 1.85 1.85 1.82 1.89 1.99 1.98 1.93 1.97 1.92
1.23 1.25 1.29 1.33 1.36 1.35 1.32 1.31 1.31 1.32 1.30 1.20 1.09 1.03 0.97 0.85 0.75 0.63 0.62 0.69 0.88 1.02 1.12 1.11 0.93 0.85 0.97 0.98 1.00 1.01 1.10 1.23 1.48 1.78 1.88 1.79 1.83 1.93 2.11 2.16 2.09 2.06 2.01
1.25 1.17 1.17 1.18 1.20 1.20 1.25 1.29 1.29 1.30 1.27 1.19 1.09 1.04 1.00 0.79 0.66 0.58 0.61 0.66 0.79 0.84 0.87 0.96 1.04 1.03 0.97 1.02 1.03 1.13 1.18 1.28 1.35 1.50 1.72 1.68 1.65 1.81 2.02 2.05 2.02 1.98 1.92
1.16 1.09 1.02 0.97 1.01 1.03 1.09 1.21 1.31 1.31 1.20 1.09 1.00 0.98 0.95 0.79 0.71 0.67 0.66 0.70 0.75 0.71 0.69 0.76 0.84 0.88 0.88 0.95 1.06 1.25 1.31 1.42 1.40 1.56 1.57 1.50 1.51 1.57 1.59 1.71 1.99 2.17 2.07
1.11 1.00 0.91 0.92 1.00 1.01 1.05 1.16 1.25 1.29 1.15 0.96 0.89 0.90 0.86 0.81 0.72 0.61 0.59 0.59 0.70 0.72 0.75 0.81 0.78 0.70 0.76 0.86 1.06 1.33 1.50 1.55 1.60 1.72 1.68 1.65 1.55 1.52 1.47 1.54 1.90 2.18 2.16
0.96 0.93 0.92 0.96 1.05 1.05 1.15 1.24 1.19 1.09 1.06 0.97 0.91 0.90 0.80 0.67 0.58 0.48 0.48 0.52 0.62 0.71 0.77 0.85 0.86 0.72 0.66 0.73 0.94 1.18 1.37 1.42 1.67 1.92 1.78 1.60 1.55 1.52 1.49 1.51 1.69 1.85 1.85
0.87 0.90 0.96 0.97 0.93 0.93 1.11 1.20 1.13 1.08 1.04 1.00 0.96 0.90 0.77 0.62 0.52 0.46 0.41 0.40 0.45 0.64 0.81 0.84 0.84 0.78 0.73 0.80 0.95 1.11 1.24 1.44 1.67 1.80 1.61 1.44 1.35 1.32 1.37 1.34 1.34 1.38 1.45
0.85 0.98 1.03 0.97 1.03 1.03 1.03 1.09 1.13 1.14 1.02 0.93 0.91 0.84 0.76 0.68 0.59 0.47 0.41 0.39 0.44 0.55 0.72 0.79 0.76 0.72 0.82 1.04 1.16 1.27 1.43 1.66 1.72 1.59 1.46 1.33 1.23 1.26 1.25 1.24 1.24 1.29 1.28
0.91 0.99 1.01 1.02 1.11 1.11 1.03 0.91 0.89 0.90 0.86 0.81 0.79 0.73 0.73 0.74 0.60 0.50 0.50 0.48 0.51 0.57 0.71 0.85 0.89 0.89 1.05 1.23 1.37 1.46 1.58 1.68 1.55 1.42 1.36 1.25 1.15 1.22 1.26 1.21 1.32 1.37 1.36
0.85 0.90 0.93 0.96 1.02 1.08 0.99 0.85 0.79 0.72 0.64 0.61 0.59 0.55 0.60 0.60 0.50 0.47 0.45 0.49 0.57 0.62 0.71 0.87 1.01 1.06 1.16 1.30 1.43 1.50 1.55 1.56 1.49 1.36 1.29 1.23 1.17 1.17 1.13 1.09 1.21 1.29 1.33
0.77 0.75 0.72 0.77 0.81 0.84 0.84 0.79 0.61 0.46 0.38 0.34 0.34 0.37 0.36 0.37 0.35 0.34 0.36 0.43 0.51 0.61 0.75 1.02 1.11 1.10 1.14 1.21 1.33 1.43 1.44 1.42 1.38 1.39 1.38 1.34 1.28 1.18 1.14 1.08 1.10 1.18 1.26
0.71 0.68 0.60 0.58 0.64 0.68 0.68 0.77 0.71 0.49 0.29 0.22 0.22 0.27 0.29 0.28 0.28 0.28 0.32 0.40 0.47 0.60 0.78 1.01 1.12 1.15 1.18 1.20 1.23 1.29 1.35 1.36 1.30 1.31 1.34 1.29 1.20 1.12 1.09 1.09 1.09 1.16 1.18
0.55 0.51 0.53 0.59 0.59 0.56 0.54 0.56 0.60 0.66 0.59 0.44 0.31 0.28 0.28 0.30 0.32 0.32 0.35 0.41 0.49 0.57 0.78 0.97 1.08 1.13 1.17 1.20 1.20 1.19 1.24 1.28 1.23 1.19 1.23 1.21 1.14 1.10 1.10 1.12 1.12 1.08 1.08
0.51 0.49 0.51 0.51 0.49 0.46 0.44 0.44 0.45 0.52 0.58 0.59 0.53 0.42 0.38 0.38 0.40 0.41 0.46 0.53 0.63 0.68 0.75 0.85 0.96 1.04 1.05 1.06 1.11 1.14 1.17 1.21 1.16 1.11 1.15 1.16 1.14 1.11 1.05 0.98 0.95 0.87 0.93
0.44 0.40 0.40 0.43 0.39 0.38 0.40 0.43 0.43 0.48 0.53 0.55 0.58 0.56 0.54 0.59 0.68 0.64 0.58 0.62 0.66 0.66 0.67 0.77 0.86 0.90 0.90 0.87 0.89 0.93 0.96 0.98 0.98 1.02 1.08 1.05 0.99 0.96 0.89 0.82 0.82 0.84 0.89
0.40 0.39 0.39 0.37 0.33 0.33 0.38 0.40 0.39 0.43 0.47 0.50 0.46 0.49 0.64 0.70 0.76 0.72 0.69 0.73 0.78 0.75 0.72 0.74 0.78 0.79 0.79 0.77 0.75 0.75 0.79 0.84 0.86 0.89 0.95 0.94 0.87 0.83 0.79 0.73 0.70 0.70 0.71
0.37 0.39 0.38 0.35 0.33 0.31 0.32 0.34 0.35 0.39 0.44 0.50 0.49 0.50 0.64 0.66 0.71 0.73 0.77 0.84 0.87 0.84 0.79 0.78 0.76 0.74 0.74 0.74 0.70 0.69 0.72 0.76 0.77 0.80 0.81 0.79 0.77 0.72 0.64 0.62 0.60 0.58 0.59
0.37 0.39 0.39 0.38 0.36 0.35 0.34 0.34 0.34 0.38 0.42 0.47 0.52 0.55 0.62 0.69 0.74 0.81 0.89 0.90 0.90 0.89 0.82 0.76 0.82 0.83 0.75 0.69 0.63 0.60 0.61 0.64 0.64 0.69 0.78 0.79 0.71 0.63 0.58 0.55 0.55 0.55 0.54
0.36 0.36 0.36 0.39 0.43 0.46 0.46 0.42 0.37 0.33 0.35 0.40 0.46 0.48 0.53 0.61 0.68 0.73 0.81 0.85 0.91 0.93 0.88 0.85 0.89 0.83 0.71 0.64 0.59 0.57 0.60 0.64 0.64 0.68 0.72 0.74 0.68 0.59 0.52 0.50 0.51 0.53 0.55
0.35 0.36 0.37 0.36 0.36 0.39 0.45 0.45 0.42 0.41 0.39 0.37 0.38 0.42 0.46 0.51 0.57 0.63 0.71 0.75 0.80 0.87 0.83 0.82 0.82 0.72 0.63 0.58 0.54 0.55 0.62 0.61 0.59 0.65 0.70 0.72 0.64 0.57 0.52 0.47 0.48 0.49 0.52
0.32 0.33 0.36 0.35 0.32 0.32 0.33 0.34 0.35 0.39 0.44 0.44 0.41 0.42 0.46 0.47 0.51 0.57 0.60 0.65 0.70 0.73 0.74 0.77 0.76 0.64 0.55 0.52 0.50 0.47 0.44 0.38 0.36 0.44 0.57 0.62 0.55 0.49 0.50 0.50 0.46 0.49 0.53